Regional Weather Roundup
Issued by NWS

Home | Current Version | Previous Version | Text Only | Print | Product List | Glossary Off
Versions: 1 2 3 4 5 6 7 8 9 10 11 12 13 14 15 16 17 18 19 20 21 22 23 24 25 26 27 28 29 30 31 32 33 34 35 36 37 38 39 40 41 42 43 44 45 46 47 48 49 50

000
ASUS43 KLOT 080103
RWRIL

ILLINOIS REGIONAL WEATHER ROUNDUP
NATIONAL WEATHER SERVICE CHICAGO/ROMEOVILLE IL
700 PM CST WED DEC 07 2016

NOTE: "FAIR" INDICATES FEW OR NO CLOUDS BELOW 12,000 FEET WITH NO
SIGNIFICANT WEATHER AND/OR OBSTRUCTIONS TO VISIBILITY.

* THESE STATIONS ARE NOT UNDER NWS QUALITY CONTROL. THEY ALSO MAY NOT
  REPORT WEATHER SUCH AS PRECIPITATION OR FOG.

ILZ001-002-007-009-015-016-024-080200-
NORTHWEST ILLINOIS

CITY           SKY/WX    TMP DP  RH WIND       PRES   REMARKS
MOLINE         CLOUDY    25  13  60 W21       30.22F WCI  11
STERLING*      CLOUDY    23  16  74 W17       30.20S WCI   9
SAVANNA*       CLOUDY    24  16  70 W12G17    30.19S WCI  13
$$

ILZ003-004-008-010-011-017-018-080200-
NORTH CENTRAL ILLINOIS

CITY           SKY/WX    TMP DP  RH WIND       PRES   REMARKS
ROCKFORD       FLURRIES  22  14  71 W18G26    30.18R WCI   7
FREEPORT*      CLOUDY    21  15  76 W12G17    30.18R WCI   9
ROCHELLE*      CLOUDY    22  16  77 W24       30.18S WCI   6
$$

ILZ005-006-012>014-019>023-080200-
NORTHEAST ILLINOIS

CITY           SKY/WX    TMP DP  RH WIND       PRES   REMARKS
CHICAGO-OHARE  MOCLDY    23  16  74 W20G31    30.12R WCI   8
CHICAGO-MIDWAY MOCLDY    26  16  65 W16G26    30.14R WCI  14
AURORA         PTCLDY    23  16  74 W21       30.16R WCI   8
LANSING*       CLEAR     26  21  82 W18G24    30.15S WCI  12
WAUKEGAN       CLOUDY    23  16  74 VRB5G20   30.09R WCI  17
DUPAGE AIRPORT MOCLDY    23  15  71 W15       30.13S WCI  10
KANKAKEE*      CLEAR     27  20  77 W13       30.18S WCI  16
WHEELING       CLOUDY    24  15  68 W16G24    30.13S WCI  11
MORRIS*        PTCLDY    26  19  76 W12G20    30.18R WCI  15
NORTHERLY ISL    N/A     26  18  71 W14         N/A  WCI  15
$$

LMZ740>746-080200-
SOUTHERN LAKE MICHIGAN

STATION/POSITION SKY/WX   TEMP    WIND        PRES    VSBY  WAVE
                          AIR SEA DIR/SP/G                  HT/PER
                          (F)     (DEG/KT/KT) (MB)    (MI)  (FT/S)
HARRISON CRIB              26     260/ 25/ 30   N/A
BURNHAM HARBOR             26     230/ 14/ 18   N/A
CALUMET HARBOR             26     240/ 10/ 16 1019.9R
BURNS HARBOR               30     260/ 22/ 29 1020.3S
MICHIGAN CITY              29     220/ 34/ 37   N/A
$$

ILZ025>027-034>036-040-047-049-050-058-095>099-080200-
WEST-CENTRAL ILLINOIS

CITY           SKY/WX    TMP DP  RH WIND       PRES   REMARKS
QUINCY         MOCLDY    27  16  63 NW12      30.28R WCI  17
GALESBURG*     MOCLDY    25  17  72 W15G21    30.24S WCI  12
MACOMB*        PTCLDY    26  18  70 W15       30.28S WCI  14
JACKSONVILLE*  PTCLDY    27  20  75 W7        30.27R WCI  20
PITTSFIELD*    CLEAR     29  18  62 W7        30.29R WCI  22
$$

ILZ028>032-037-038-041>044-048-051>054-059>061-080200-
CENTRAL ILLINOIS

CITY           SKY/WX    TMP DP  RH WIND       PRES   REMARKS
PONTIAC        PTCLDY    28  21  75 W20       30.21R WCI  14
BLOOMINGTON    MOCLDY    27  19  72 W14       30.21R WCI  16
DECATUR        MOCLDY    31  20  63 W10       30.23R WCI  22
PEORIA         PTCLDY    27  16  63 W10       30.24R WCI  17
LACON*         CLEAR     26  16  66 W10G16    30.22S WCI  16
LINCOLN*       MOCLDY    30  20  66 W6        30.24S WCI  24
SPRINGFIELD    PTCLDY    30  20  66 NW8       30.26R WCI  22
TAYLORVILLE    MOCLDY    31  22  69 W9        30.25S WCI  23
$$

ILZ033-039-045-046-055>057-062-063-080200-
EAST-CENTRAL ILLINOIS

CITY           SKY/WX    TMP DP  RH WIND       PRES   REMARKS
CHAMPAIGN      MOCLDY    30  23  75 W13       30.22R WCI  20
RANTOUL*       CLEAR     31  24  74 W15       30.21R WCI  20
MATTOON        CLOUDY    29  21  72 W8        30.22R WCI  21
PARIS*         MOCLDY    30  26  84 W9        30.22R WCI  22
$$

ILZ079-100>102-080200-
SOUTHWEST ILLINOIS

CITY           SKY/WX    TMP DP  RH WIND       PRES   REMARKS
ALTON          CLOUDY    32  21  64 W12       30.28R WCI  23
BELLEVILLE     CLOUDY    35  19  50 W8        30.27R WCI  29
CAHOKIA*       CLOUDY    36  17  46 W7        30.28R WCI  30
SPARTA*        CLOUDY    35  22  59 NW3       30.29R
$$

ILZ064>066-069>071-074>076-080>082-084>086-088>090-092>094-080200-
SOUTH-CENTRAL ILLINOIS

CITY           SKY/WX    TMP DP  RH WIND       PRES   REMARKS
CARBONDALE     CLOUDY    35  23  61 NW6       30.27R WCI  30
CAIRO*         CLOUDY    37  25  60 N6        30.27R WCI  33
EFFINGHAM*     CLOUDY    33  25  71 W7        30.26R WCI  27
MARION           N/A     37  25  60 CALM      30.27S
CENTRALIA*     CLOUDY    35  24  65 CALM      30.26R
SALEM*         CLOUDY    35  23  62 W6        30.26R WCI  30
METROPOLIS*    CLOUDY    38  24  56 N8        30.26R WCI  32
$$

ILZ067-068-072-073-078-083-087-091-080200-
SOUTHEAST ILLINOIS

CITY           SKY/WX    TMP DP  RH WIND       PRES   REMARKS
LAWRENCEVILLE  CLOUDY    34  24  67 W6        30.24R WCI  29
FLORA*         CLOUDY    36  24  63 W7        30.26R WCI  30
FAIRFIELD*     CLOUDY    34  23  64 CALM      30.25R
HARRISBURG*    CLOUDY    36  26  67 NW5       30.27R WCI  32
ROBINSON*      CLOUDY    33  24  71 NW8       30.24S WCI  26
CARMI*         CLOUDY    35  27  74 NW7       30.24F WCI  29
$$

ABBREVIATIONS USED IN REMARKS
   TC - TEMPERATURE IN CELSIUS
  WCI - WIND CHILL INDEX
   HX - HEAT INDEX
  VSB - VISIBILITY
$$




USA.gov is the U.S. government's official web portal to all federal, state and local government web resources and services.